Location: Baili�vre
(50.0696°N, 4.2409°E)
Time: 21:08:17
(UTC+00:00)

YAOGAN 11 - Pass Details

Date: 08 August 2020
Orbit: 613 x 669 km, 98.3° (Epoch: 22 September)

Event Time Altitude Azimuth Distance (km) Brightness Sun altitude
Exits shadow 23:48:27 81° 153° (SSE) 685 4.0 -24.2°
Maximum altitude 23:48:40 88° 82° (E) 678 4.1 -24.2°
Drops below altitude 10° 23:53:18 10° 346° (NNW) 2,108 7.8 -24.1°
Sets 23:55:33 0° 346° (NNW) 3,024 8.9 -24.1°
